Location: Sibbertoft
(52.4361°N, 1.0300°W)
Time: 16:36:33
(UTC+01:00)

ISS - Visible Passes

Search period start: 19 September 2018 00:00
Search period end: 29 September 2018 00:00
Orbit: 402 x 408 km, 51.6° (Epoch: 20 September)

Date Brightness Start Highest point End Pass type
(mag) Time Alt. Az. Time Alt. Az. Time Alt. Az.
22 Sep -1.3 21:00:49 10° SSW 21:01:16 13° SSW 21:01:16 13° SSW visible
23 Sep -2.0 20:09:39 10° S 20:11:40 15° SE 20:11:53 15° SE visible
23 Sep -0.9 21:44:26 10° WSW 21:44:35 11° WSW 21:44:35 11° WSW visible
24 Sep -2.8 20:52:38 10° SW 20:55:01 32° S 20:55:01 32° S visible
25 Sep -2.6 20:01:00 10° SSW 20:03:49 26° SSE 20:05:16 19° ESE visible
25 Sep -1.6 21:36:43 10° WSW 21:37:57 21° WSW 21:37:57 21° WSW visible
26 Sep -3.7 20:44:46 10° WSW 20:48:00 55° SSE 20:48:05 55° SSE visible
27 Sep -3.2 19:52:53 10° SW 19:56:01 41° SSE 19:58:08 18° E visible
27 Sep -2.0 21:29:03 10° W 21:30:48 29° W 21:30:48 29° W visible
28 Sep -3.9 20:37:00 10° WSW 20:40:18 72° S 20:40:46 59° ESE visible
